Home > Weather > Tarnów > Past weeks

Flag for Poland Weather for the Past 2 Weeks in Tarnów, Poland

Now
44 °F

Quite cool.


Feels Like: 43 °F
Forecast: 33 / 47 °F
Wind: 3 mph from South

Location: Tarnow

Current Time: Feb 13, 2016 at 2:20:50 PM

Latest Report: Feb 13, 2016 at 1:00 PM


Visibility: 22 mi

Pressure: 29.41 "Hg

Humidity: 70%

Dew point: 35 °F

Location of TarnówLocation

Historic Weather in Tarnów — Graph

°F

Tarnów Temperature Yesterday

Maximum temperature yesterday: 43 °F (at 2:00 PM)
Minimum temperature yesterday: 31 °F (at 7:00 AM)
Average temperature yesterday: 39 °F

High & Low Weather Summary for the Past Weeks

 TemperatureHumidityPressure
High58 °F (Feb 9, 3:00 PM)97% (Feb 10, 9:00 PM)30.34 "Hg (Feb 10, 9:00 PM)
Low28 °F (Feb 5, 9:00 PM)33% (Feb 9, 3:00 PM)29.18 "Hg (Feb 10, 2:00 PM)
Average41 °F72%29.87 "Hg
* Reported Jan 29 1:00 PM — Feb 13 1:00 PM, Tarnów, Weather by CustomWeather, © 2016

Note: Actual official high and low records may vary slightly from our data, if they occured in-between our weather recording intervals... More about our weather records

Advertising

Tarnów Weather History for the Previous 24 Hours

 ConditionsComfort  
Time TempWeatherWind HumidityBarometerVisibility
1:00 PM
Sat, Feb 13
44 °FQuite cool.3 mph70%29.41 "Hg22 mi
12:00 PM42 °FQuite cool.2 mph73%29.44 "Hg22 mi
11:00 AM41 °FQuite cool.2 mph76%29.47 "Hg11 mi
10:00 AM39 °FRain showers. Cloudy.2 mph84%29.47 "Hg22 mi
9:00 AM38 °FLight rain. Cloudy.3 mph85%29.50 "Hg25 mi
8:00 AM37 °FChilly.3 mph85%29.50 "Hg25 mi
7:00 AM37 °FDrizzle. Cloudy.2 mph85%29.50 "Hg19 mi
6:00 AM37 °FFog.2 mph80%29.50 "Hg25 mi
5:00 AM37 °FChilly.3 mph81%29.54 "Hg28 mi
9:00 PM
Fri, Feb 12
40 °FChilly.2 mph74%29.69 "Hg9 mi
8:00 PM39 °FChilly.2 mph73%29.71 "Hg11 mi
7:00 PM39 °FChilly.2 mph75%29.72 "Hg9 mi
6:00 PM39 °FChilly.2 mph70%29.73 "Hg12 mi
5:00 PM39 °FChilly.2 mph71%29.74 "Hg11 mi
4:00 PM40 °FChilly.2 mph69%29.75 "Hg12 mi
3:00 PM42 °FQuite cool.3 mph63%29.75 "Hg19 mi
2:00 PM43 °FQuite cool.2 mph60%29.75 "Hg19 mi
Weather by CustomWeather, © 2016

See weather overviewHow to use our weather pages